Location: Grums
(59.3529°N, 13.1129°E)
Time: 07:45:50
(UTC+02:00)

Nauka - Pass Details

Date: 01 October 2021
Orbit: 417 x 423 km, 51.6° (Epoch: 23 October)

Event Time Altitude Azimuth Distance (km) Brightness Sun altitude
Rises 20:15:35 0° 263° (W) 2,366 ? -12.9°
Reaches altitude 10° 20:18:40 10° 232° (SW) 1,500 ? -13.3°
Maximum altitude 20:20:06 12° 207° (SSW) 1,367 ? -13.5°
Drops below altitude 10° 20:21:33 10° 181° (S) 1,499 ? -13.6°
Enters shadow 20:22:27 - 169° (S) 1,695 ? -13.7°
